sat.trackr.live / text

‹ back to catalog

STARLINK-37213

NORAD 68686 · 2026-077AA

PAYLOAD ACTIVE UNKNOWN

§ Identity

Operator
Country
US
Launch date
2026-04-11
Launch site
AFWTR
Launch vehicle
Mass (kg)
RCS (m²)

Purposes: comms

External: N2YO · Heavens-Above · Gunter

§ Orbital elements

Epoch: 2026-09-19T02:38:18.129984Z

Period
93.91 min
Inclination
97.2844°
Eccentricity
0.0002609
Mean motion
15.33456766 rev/d
Perigee alt
463.7 km
Apogee alt
467.3 km
Semi-major
6,843.6 km
B*
5.8584e-4
RAAN
132.0801°
Arg perigee
79.0916°
Mean anomaly
281.0620°
Rev number
2,480

§ Raw data

STARLINK-372131 68686U 26077AA  26262.10993206  .00018894  00000+0  58584-3 0  99962 68686  97.2844 132.0801 0002609  79.0916 281.0620 15.33456766 24803

JSON: /api/v1/satellites/68686 · /tle

For live sub-satellite position, see the globe view (requires WebGL).

§ Visibility from observer

Set your observer location to see the next 7 days of passes ≥ 10°. The values pass through the URL so the page stays shareable.

No JS? Fill the form by hand. The geolocation button needs JavaScript.